GW1094 Weather Reports


Display with metric or nautical units.
time (UTC)temp
F
wind
direction
speed
MPH
gust
MPH
rain 1hr
in
rain 24hr
in
rain mn
in
humidity
%
barometer
mb
20260504050427 39 178 0.0 0.0 0.00 0.00 0.00 99 4089.1
20260504045924 39 179 0.0 0.0 0.00 0.00 0.00 99 4089.1
20260504045420 39 179 0.0 0.0 0.00 0.00 0.00 99 4089.1
20260504044916 39 179 0.0 0.0 0.00 0.00 0.00 99 4088.7
20260504044414 38 179 0.0 0.0 0.00 0.00 0.00 99 4088.7
20260504043911 39 179 0.0 0.0 0.00 0.00 0.00 99 4089.1
20260504043408 39 179 0.0 0.0 0.00 0.00 0.00 99 4088.7
20260504042906 39 179 0.0 0.0 0.00 0.00 0.00 99 4088.7
20260504042402 39 179 0.0 0.0 0.00 0.00 0.00 99 4089.1
20260504041858 39 179 0.0 0.0 0.00 0.00 0.00 99 4089.1
20260504041354 39 179 0.0 0.0 0.00 0.00 0.00 99 4089.1
20260504040850 39 179 0.0 0.0 0.00 0.00 0.00 99 4089.1
20260504040348 39 179 0.0 0.0 0.00 0.00 0.00 99 4089.1
20260504035844 38 179 0.0 0.0 0.00 0.36 0.36 99 4089.4
20260504035342 39 179 0.0 0.0 0.00 0.36 0.36 99 4089.4
20260504034838 39 179 0.0 0.0 0.00 0.36 0.36 99 4089.4
20260504034336 39 179 0.0 0.0 0.00 0.36 0.36 99 4089.1
20260504033833 39 179 0.0 0.0 0.00 0.36 0.36 99 4089.4
20260504033331 39 180 0.0 0.0 0.00 0.36 0.36 99 4089.4
20260504032827 40 180 0.0 0.0 0.00 0.36 0.36 99 4089.8
20260504032325 40 180 0.0 0.0 0.00 0.36 0.36 99 4089.8
20260504031821 40 181 0.0 0.0 0.00 0.36 0.36 99 4089.8
20260504031319 41 181 0.0 0.0 0.00 0.36 0.36 99 4089.8
20260504030815 41 116 0.0 0.0 0.00 0.36 0.36 99 4090.1
20260504030312 42 116 0.0 0.0 0.00 0.36 0.36 99 4089.8
20260504025808 42 116 0.0 0.0 0.00 0.36 0.36 99 4090.1
20260504025306 42 116 0.0 0.0 0.00 0.36 0.36 99 4090.1
20260504024801 42 116 0.0 0.0 0.00 0.36 0.36 99 4089.8
20260504024258 42 116 0.0 0.0 0.00 0.36 0.36 99 4090.1
20260504023755 42 116 0.0 0.0 0.00 0.36 0.36 99 4090.1
20260504023252 42 116 0.0 0.0 0.00 0.36 0.36 99 4090.1
20260504022747 42 116 0.0 0.0 0.00 0.36 0.36 99 4090.1
20260504022244 42 116 0.0 0.0 0.00 0.36 0.36 99 4090.1
20260504021741 42 116 0.0 0.0 0.00 0.36 0.36 99 4090.1
20260504021238 42 116 0.0 0.0 0.00 0.36 0.36 99 4090.1
20260504020735 42 121 0.0 0.0 0.00 0.36 0.36 99 4090.1
20260504020232 42 123 0.0 0.0 0.00 0.36 0.36 99 4090.1
20260504015728 42 121 0.0 0.0 0.00 0.36 0.36 99 4090.1
20260504015224 42 122 0.0 0.0 0.00 0.36 0.36 99 4089.8
20260504014720 42 122 0.0 0.0 0.00 0.36 0.36 99 4090.1
20260504014217 42 122 0.0 0.0 0.00 0.36 0.36 99 4089.8
20260504013715 42 122 0.0 0.0 0.00 0.36 0.36 99 4089.8
20260504013212 42 122 0.0 0.0 0.00 0.36 0.36 99 4089.8
20260504012709 42 122 0.0 0.0 0.00 0.36 0.36 99 4090.1
20260504012207 42 122 0.0 0.0 0.00 0.36 0.36 99 4089.8
20260504011703 42 122 0.0 0.0 0.00 0.36 0.36 99 4089.8
20260504011200 42 122 0.0 0.0 0.00 0.36 0.36 99 4089.8
20260504010655 42 123 0.0 0.0 0.00 0.36 0.36 99 4089.8
20260504010151 42 127 0.0 0.0 0.00 0.36 0.36 99 4089.8
20260504005648 43 128 0.0 0.0 0.00 0.36 0.36 99 4089.8
20260504005145 43 131 0.0 0.0 0.00 0.36 0.36 99 4089.8
20260504004643 43 131 0.0 0.0 0.00 0.36 0.36 99 4089.8
20260504004140 43 132 0.0 0.0 0.00 0.36 0.36 99 4089.4
20260504003636 43 130 0.0 0.0 0.00 0.36 0.36 99 4089.8
20260504003133 43 133 0.0 1.0 0.00 0.36 0.36 99 4089.8
20260504002630 43 124 0.0 0.0 0.00 0.36 0.36 99 4089.4
20260504002128 43 123 0.0 0.0 0.00 0.36 0.36 99 4089.4
20260504001625 42 139 2.0 2.0 0.00 0.36 0.36 99 4089.4
20260504001121 42 163 4.0 5.0 0.00 0.36 0.36 99 4089.4
20260504000619 42 156 3.0 3.0 0.00 0.36 0.36 99 4089.8
20260504000116 43 165 4.0 5.0 0.00 0.36 0.36 99 4089.8
20260503235614 43 166 5.0 5.0 0.03 0.36 0.36 99 4089.8
20260503235110 44 170 6.0 6.0 0.03 0.36 0.36 99 4089.8
20260503234609 44 143 3.0 3.0 0.03 0.36 0.36 99 4089.8
20260503234106 44 147 3.0 3.0 0.03 0.36 0.36 99 4089.8
20260503233603 44 125 0.0 0.0 0.03 0.36 0.36 99 4089.8
20260503233059 44 125 0.0 0.0 0.03 0.36 0.36 99 4089.8
20260503232556 43 125 0.0 0.0 0.03 0.36 0.36 99 4089.8
20260503232053 43 124 0.0 0.0 0.03 0.36 0.36 99 4089.4
20260503231551 43 125 0.0 0.0 0.03 0.36 0.36 99 4089.8
20260503231047 43 125 0.0 0.0 0.02 0.35 0.35 99 4090.1
20260503230544 42 125 0.0 0.0 0.01 0.34 0.34 99 4090.5
20260503230042 42 126 0.0 0.0 0.17 0.33 0.33 99 4090.5
20260503225538 42 234 0.0 0.0 0.14 0.30 0.30 99 4090.5
20260503225033 43 60 0.0 0.0 0.13 0.29 0.29 99 4090.8
20260503224531 43 35 1.0 1.0 0.11 0.27 0.27 99 4091.1
20260503224028 44 31 1.0 1.0 0.08 0.24 0.24 99 4090.8
20260503223526 45 33 2.0 2.0 0.07 0.23 0.23 99 4090.1
20260503223021 47 27 3.0 3.0 0.03 0.19 0.19 99 4090.5
20260503222520 49 137 3.0 3.0 0.02 0.18 0.18 98 4090.1
20260503222018 49 155 1.0 1.0 0.00 0.16 0.16 93 4089.4
20260503221516 50 156 0.0 0.0 0.00 0.16 0.16 89 4089.4
20260503221013 50 156 0.0 0.0 0.00 0.16 0.16 88 4089.1
20260503220509 50 156 0.0 0.0 0.00 0.16 0.16 88 4089.1
20260503220006 50 156 1.0 1.0 0.00 0.16 0.16 89 4088.7
20260503215503 50 157 0.0 1.0 0.00 0.16 0.16 88 4089.1
20260503215000 50 159 0.0 0.0 0.00 0.16 0.16 91 4089.1
20260503214458 49 159 0.0 1.0 0.00 0.16 0.16 90 4088.7
20260503213955 48 196 0.0 0.0 0.00 0.16 0.16 93 4089.1
20260503213453 49 196 1.0 1.0 0.00 0.16 0.16 91 4089.1
20260503212949 50 197 0.0 0.0 0.00 0.16 0.16 91 4089.4
20260503212447 50 197 0.0 0.0 0.00 0.16 0.16 91 4089.1
20260503211944 50 197 1.0 1.0 0.00 0.16 0.16 91 4089.4
20260503211441 49 198 0.0 0.0 0.00 0.16 0.16 90 4089.1
20260503210936 52 164 1.0 2.0 0.00 0.16 0.16 89 4089.4
20260503210433 52 160 3.0 3.0 0.00 0.16 0.16 81 4089.1
20260503205928 51 162 3.0 3.0 0.00 0.16 0.16 86 4089.1
20260503205425 50 155 3.0 3.0 0.00 0.16 0.16 90 4089.4
20260503204921 50 172 6.0 7.0 0.00 0.16 0.16 87 4089.8
20260503204419 50 195 1.0 1.0 0.00 0.16 0.16 89 4089.8
20260503203916 51 195 2.0 2.0 0.00 0.16 0.16 88 4089.8
20260503203413 50 166 1.0 2.0 0.00 0.16 0.16 91 4089.8
20260503202910 48 212 2.0 2.0 0.00 0.16 0.16 92 4089.8
20260503202408 49 198 1.0 1.0 0.00 0.16 0.16 90 4089.8
20260503201906 48 198 1.0 2.0 0.00 0.16 0.16 92 4090.1
20260503201403 48 173 2.0 2.0 0.00 0.16 0.16 92 4090.1
20260503200901 48 162 2.0 2.0 0.00 0.16 0.16 90 4090.1
20260503200356 45 162 2.0 2.0 0.00 0.16 0.16 96 4090.1
20260503195854 43 159 0.0 0.0 0.00 0.16 0.16 99 4090.5
20260503195350 43 160 2.0 2.0 0.00 0.16 0.16 98 4090.5
20260503194847 44 155 3.0 3.0 0.00 0.16 0.16 97 4090.5
20260503194343 44 152 4.0 5.0 0.00 0.16 0.16 98 4090.8
20260503193840 44 158 3.0 3.0 0.00 0.16 0.16 99 4090.8
20260503193336 45 168 6.0 6.0 0.00 0.16 0.16 97 4090.8
20260503192832 48 157 6.0 7.0 0.00 0.16 0.16 92 4090.8
20260503192327 48 216 3.0 3.0 0.00 0.16 0.16 94 4091.1
20260503191824 46 180 1.0 1.0 0.00 0.16 0.16 97 4090.8
20260503191321 47 173 3.0 3.0 0.00 0.16 0.16 95 4091.1
20260503190818 50 153 5.0 6.0 0.00 0.16 0.16 91 4091.1
20260503190315 50 235 2.0 3.0 0.00 0.16 0.16 95 4091.5
20260503185812 47 235 0.0 0.0 0.00 0.16 0.16 96 4091.5
20260503185307 46 235 1.0 2.0 0.00 0.16 0.16 96 4091.5
20260503184802 49 219 1.0 3.0 0.00 0.16 0.16 93 4091.5
20260503184258 50 201 1.0 1.0 0.00 0.16 0.16 92 4091.5
20260503183754 50 158 1.0 1.0 0.00 0.16 0.16 90 4091.5
20260503183252 50 159 1.0 1.0 0.00 0.16 0.16 91 4091.8
20260503182749 50 185 2.0 2.0 0.00 0.16 0.16 94 4091.8
20260503182248 50 181 3.0 3.0 0.00 0.16 0.16 92 4091.5
20260503181744 49 158 0.0 0.0 0.00 0.16 0.16 94 4091.5
20260503181242 48 145 0.0 1.0 0.00 0.16 0.16 95 4091.8
20260503180738 48 154 0.0 1.0 0.00 0.16 0.16 94 4091.8
20260503180236 49 153 1.0 1.0 0.00 0.16 0.16 93 4091.8
20260503175732 48 153 0.0 1.0 0.00 0.16 0.16 94 4091.8
20260503175231 48 153 1.0 2.0 0.00 0.16 0.16 94 4092.1
20260503174726 47 154 1.0 2.0 0.00 0.16 0.16 94 4091.8
20260503174224 46 154 2.0 2.0 0.00 0.16 0.16 96 4092.1
20260503173719 45 154 3.0 3.0 0.00 0.16 0.16 97 4092.1
20260503173215 45 151 3.0 3.0 0.00 0.16 0.16 96 4092.1
20260503172712 45 139 4.0 5.0 0.00 0.16 0.16 98 4092.1
20260503172209 45 149 3.0 3.0 0.00 0.16 0.16 97 4092.1
20260503171706 44 135 3.0 5.0 0.00 0.16 0.16 99 4092.5
20260503171203 43 139 3.0 3.0 0.00 0.16 0.16 99 4092.8
20260503170700 42 144 3.0 3.0 0.00 0.16 0.16 99 4092.5
20260503170157 42 142 4.0 5.0 0.00 0.16 0.16 99 4092.5
20260503160118 39 138 3.0 3.0 0.00 0.16 0.16 99 4093.2
20260503150543 37 153 0.0 0.0 0.02 0.12 0.12 99 4093.8
20260503130932 39 137 0.0 0.0 0.00 0.00 0.00 86 4094.5
20260503130431 38 137 0.0 0.0 0.00 0.00 0.00 82 4094.2
20260503110823 38 180 6.0 6.0 0.00 0.00 0.00 86 4094.5
20260503110320 38 168 5.0 6.0 0.00 0.00 0.00 90 4094.9
20260503100246 33 144 0.0 0.0 0.00 0.00 0.00 93 4095.2
20260503090206 36 139 1.0 1.0 0.00 0.00 0.00 91 4095.9
20260503081636 33 294 1.0 2.0 0.00 0.00 0.00 91 4096.5
20260503081132 33 298 0.0 0.0 0.00 0.00 0.00 93 4096.5
20260503080628 33 299 0.0 0.0 0.00 0.00 0.00 94 4097.0
20260503080126 33 300 0.0 0.0 0.00 0.00 0.00 94 4097.0
20260503072602 32 300 0.0 0.0 0.00 0.00 0.00 99 4097.3